TimeEDT,TemperatureF,Dew PointF,Humidity,Sea Level PressureIn,VisibilityMPH,Wind Direction,Wind SpeedMPH,Gust SpeedMPH,PrecipitationIn,Events,Conditions,WindDirDegrees,DateUTC
12:56 AM,60.1,55.0,83,30.14,10.0,WNW,5.8,-,N/A,,Clear,300,2012-10-25 04:56:00
1:56 AM,59.0,55.0,87,30.15,10.0,Calm,Calm,-,N/A,,Clear,0,2012-10-25 05:56:00
2:56 AM,57.0,54.0,89,30.16,10.0,NW,4.6,-,N/A,,Clear,310,2012-10-25 06:56:00
3:56 AM,57.0,54.0,89,30.14,10.0,Calm,Calm,-,N/A,,Clear,0,2012-10-25 07:56:00
4:56 AM,59.0,55.0,87,30.15,10.0,East,3.5,-,N/A,,Clear,80,2012-10-25 08:56:00
5:56 AM,61.0,57.0,87,30.16,7.0,ENE,5.8,-,N/A,,Clear,70,2012-10-25 09:56:00
6:03 AM,60.8,57.2,88,30.16,7.0,ENE,5.8,-,N/A,,Scattered Clouds,60,2012-10-25 10:03:00
6:15 AM,60.8,57.2,88,30.17,7.0,ENE,5.8,-,N/A,,Mostly Cloudy,60,2012-10-25 10:15:00
6:56 AM,60.1,57.9,93,30.18,4.0,East,5.8,-,N/A,,Overcast,90,2012-10-25 10:56:00
7:56 AM,60.1,57.9,93,30.20,3.0,East,4.6,-,N/A,,Overcast,90,2012-10-25 11:56:00
8:56 AM,61.0,57.9,90,30.22,4.0,East,8.1,-,N/A,,Overcast,90,2012-10-25 12:56:00
9:56 AM,62.1,57.9,86,30.22,5.0,East,5.8,-,N/A,,Overcast,100,2012-10-25 13:56:00
10:56 AM,63.0,57.9,84,30.23,5.0,East,4.6,-,N/A,,Overcast,90,2012-10-25 14:56:00
11:56 AM,64.0,57.9,80,30.23,6.0,Calm,Calm,-,N/A,,Overcast,0,2012-10-25 15:56:00
12:56 PM,64.9,57.9,78,30.21,7.0,Calm,Calm,-,N/A,,Overcast,0,2012-10-25 16:56:00
1:37 PM,68.0,57.2,68,30.19,8.0,Calm,Calm,-,N/A,,Scattered Clouds,0,2012-10-25 17:37:00
1:56 PM,66.9,57.9,73,30.19,7.0,Calm,Calm,-,N/A,,Clear,0,2012-10-25 17:56:00
2:56 PM,69.1,60.1,73,30.18,7.0,East,5.8,-,N/A,,Clear,80,2012-10-25 18:56:00
3:56 PM,69.1,60.1,73,30.18,7.0,ENE,5.8,-,N/A,,Clear,70,2012-10-25 19:56:00
4:56 PM,69.1,60.1,73,30.17,7.0,ENE,4.6,-,N/A,,Clear,60,2012-10-25 20:56:00
5:56 PM,68.0,60.1,76,30.17,8.0,East,5.8,-,N/A,,Clear,80,2012-10-25 21:56:00
6:56 PM,66.0,60.1,81,30.19,8.0,SSE,3.5,-,N/A,,Clear,150,2012-10-25 22:56:00
7:56 PM,64.9,60.1,84,30.20,8.0,SE,3.5,-,N/A,,Clear,140,2012-10-25 23:56:00
8:56 PM,64.0,60.1,87,30.19,7.0,ENE,5.8,-,N/A,,Clear,70,2012-10-26 00:56:00
9:56 PM,63.0,60.1,90,30.19,5.0,East,3.5,-,N/A,,Mostly Cloudy,80,2012-10-26 01:56:00
10:56 PM,63.0,59.0,87,30.19,7.0,Calm,Calm,-,N/A,,Scattered Clouds,0,2012-10-26 02:56:00
11:20 PM,62.6,59.0,88,30.18,7.0,Calm,Calm,-,N/A,,Mostly Cloudy,0,2012-10-26 03:20:00
11:31 PM,62.6,59.0,88,30.18,6.0,Calm,Calm,-,N/A,,Overcast,0,2012-10-26 03:31:00
11:56 PM,63.0,59.0,87,30.19,7.0,East,3.5,-,N/A,,Overcast,90,2012-10-26 03:56:00